WB4FAY-4 Weather Reports


time (UTC)temp
C
wind
direction
speed
KPH
gust
KPH
rain 1hr
cm
rain 24hr
cm
rain mn
cm
humidity
%
barometer
mb
20260505084017 14 0 0.0 0.0 0.00 0.00 0.00 82 1014.6
20260505083518 15 0 0.0 0.0 0.00 0.00 0.00 81 1014.6
20260505083018 15 0 0.0 0.0 0.00 0.00 0.00 81 1014.7
20260505082517 15 0 0.0 0.0 0.00 0.00 0.00 81 1014.8
20260505082017 15 0 0.0 0.0 0.00 0.00 0.00 80 1014.9
20260505081517 15 0 0.0 0.0 0.00 0.00 0.00 80 1014.9
20260505081018 15 0 0.0 0.0 0.00 0.00 0.00 79 1014.9
20260505080517 15 0 0.0 0.0 0.00 0.00 0.00 79 1014.9
20260505080018 15 0 0.0 0.0 0.00 0.00 0.00 79 1014.8
20260505075518 15 0 0.0 0.0 0.00 0.00 0.00 78 1014.9
20260505075017 15 0 0.0 0.0 0.00 0.00 0.00 78 1014.9
20260505074517 15 0 0.0 0.0 0.00 0.00 0.00 78 1015.0
20260505074017 15 0 0.0 0.0 0.00 0.00 0.00 78 1015.1
20260505073517 15 0 0.0 0.0 0.00 0.00 0.00 78 1015.2
20260505073018 15 0 0.0 0.0 0.00 0.00 0.00 78 1015.1
20260505072518 15 0 0.0 0.0 0.00 0.00 0.00 78 1015.0
20260505072017 15 0 0.0 0.0 0.00 0.00 0.00 78 1014.9
20260505071517 15 0 0.0 0.0 0.00 0.00 0.00 78 1014.9
20260505071018 15 281 0.0 3.2 0.00 0.00 0.00 78 1014.9
20260505070517 15 256 1.6 4.8 0.00 0.00 0.00 78 1014.8
20260505070017 15 227 0.0 3.2 0.00 0.00 0.00 78 1014.9
20260505065517 15 200 0.0 3.2 0.00 0.00 0.00 78 1014.9
20260505065017 15 251 0.0 3.2 0.00 0.00 0.00 78 1014.9
20260505064517 15 0 0.0 0.0 0.00 0.00 0.00 78 1014.9
20260505064017 15 0 0.0 0.0 0.00 0.00 0.00 77 1014.9
20260505063517 15 0 0.0 0.0 0.00 0.00 0.00 76 1015.0
20260505063017 15 0 0.0 0.0 0.00 0.00 0.00 76 1014.9
20260505062517 15 0 0.0 0.0 0.00 0.00 0.00 76 1015.0
20260505062018 15 0 0.0 0.0 0.00 0.00 0.00 75 1015.0
20260505061517 15 0 0.0 0.0 0.00 0.00 0.00 75 1015.0
20260505061017 15 0 0.0 0.0 0.00 0.00 0.00 75 1015.0
20260505060517 15 0 0.0 0.0 0.00 0.00 0.00 76 1015.1
20260505060017 15 0 0.0 0.0 0.00 0.00 0.00 76 1015.2
20260505055518 15 0 0.0 0.0 0.00 0.00 0.00 75 1015.2
20260505055017 15 313 0.0 1.6 0.00 0.00 0.00 75 1015.2
20260505054517 15 0 0.0 0.0 0.00 0.00 0.00 74 1015.1
20260505054017 15 0 0.0 0.0 0.00 0.00 0.00 74 1015.2
20260505053517 15 0 0.0 0.0 0.00 0.00 0.00 74 1015.1
20260505053017 15 0 0.0 0.0 0.00 0.00 0.00 73 1014.9
20260505052518 15 0 0.0 0.0 0.00 0.00 0.00 73 1015.0
20260505052017 16 0 0.0 0.0 0.00 0.00 0.00 73 1015.0
20260505051517 16 0 0.0 0.0 0.00 0.00 0.00 72 1014.9
20260505051018 16 263 0.0 4.8 0.00 0.00 0.00 72 1014.8
20260505050518 16 0 0.0 0.0 0.00 0.00 0.00 72 1014.7
20260505041518 16 0 0.0 0.0 0.00 0.00 0.00 70 1014.7
20260505041017 16 0 0.0 0.0 0.00 0.00 0.00 70 1014.8
20260505040517 16 0 0.0 0.0 0.00 0.00 0.00 70 1014.8
20260505040016 16 0 0.0 0.0 0.00 0.00 0.00 69 1014.8
20260505035517 16 0 0.0 0.0 0.00 0.00 0.00 69 1014.8
20260505035017 16 0 0.0 0.0 0.00 0.00 0.00 69 1014.8
20260505034517 16 0 0.0 0.0 0.00 0.00 0.00 69 1014.8
20260505034017 16 0 0.0 0.0 0.00 0.00 0.00 68 1014.8
20260505033517 16 0 0.0 0.0 0.00 0.00 0.00 68 1014.8
20260505033018 17 0 0.0 0.0 0.00 0.00 0.00 67 1014.8
20260505032517 17 0 0.0 0.0 0.00 0.00 0.00 67 1014.8
20260505032023 17 0 0.0 0.0 0.00 0.00 0.00 66 1014.7
20260505031517 17 0 0.0 0.0 0.00 0.00 0.00 66 1014.7
20260505031017 17 0 0.0 0.0 0.00 0.00 0.00 66 1014.6
20260505030517 17 0 0.0 0.0 0.00 0.00 0.00 65 1014.6
20260505030018 17 0 0.0 0.0 0.00 0.00 0.00 65 1014.6
20260505025517 17 0 0.0 0.0 0.00 0.00 0.00 65 1014.6
20260505025017 17 0 0.0 0.0 0.00 0.00 0.00 65 1014.7
20260505024517 17 0 0.0 0.0 0.00 0.00 0.00 64 1014.7
20260505024018 17 0 0.0 0.0 0.00 0.00 0.00 63 1014.7
20260505023517 18 0 0.0 0.0 0.00 0.00 0.00 63 1014.7
20260505023017 18 0 0.0 0.0 0.00 0.00 0.00 62 1014.7
20260505022517 18 0 0.0 0.0 0.00 0.00 0.00 62 1014.7
20260505022017 18 0 0.0 0.0 0.00 0.00 0.00 60 1014.6
20260505021518 18 0 0.0 0.0 0.00 0.00 0.00 59 1014.6
20260505021017 18 0 0.0 0.0 0.00 0.00 0.00 58 1014.6
20260505020517 18 0 0.0 0.0 0.00 0.00 0.00 58 1014.5
20260505020017 19 0 0.0 0.0 0.00 0.00 0.00 57 1014.3
20260505015517 19 0 0.0 0.0 0.00 0.00 0.00 56 1014.4
20260505015017 20 0 0.0 0.0 0.00 0.00 0.00 55 1014.3
20260505014517 20 0 0.0 0.0 0.00 0.00 0.00 54 1014.3
20260505014017 20 0 0.0 0.0 0.00 0.00 0.00 52 1014.2
20260505013517 20 0 0.0 0.0 0.00 0.00 0.00 52 1014.2
20260505013018 20 0 0.0 0.0 0.00 0.00 0.00 51 1014.2
20260505012517 21 0 0.0 0.0 0.00 0.00 0.00 50 1014.2
20260505012018 21 0 0.0 0.0 0.00 0.00 0.00 50 1014.1
20260505011517 21 0 0.0 0.0 0.00 0.00 0.00 49 1014.1
20260505011017 22 0 0.0 0.0 0.00 0.00 0.00 48 1014.0
20260505010518 22 0 0.0 0.0 0.00 0.00 0.00 47 1014.0
20260505010018 22 257 0.0 3.2 0.00 0.00 0.00 46 1013.9
20260505005517 22 198 0.0 3.2 0.00 0.00 0.00 46 1013.9
20260505005017 22 186 1.6 9.7 0.00 0.00 0.00 44 1013.9
20260505004517 22 202 4.8 8.0 0.00 0.00 0.00 45 1013.9
20260505004017 22 213 0.0 4.8 0.00 0.00 0.00 43 1013.9
20260505003517 23 0 0.0 0.0 0.00 0.00 0.00 43 1013.8
20260505003017 23 0 0.0 0.0 0.00 0.00 0.00 43 1013.8
20260505002517 23 0 0.0 0.0 0.00 0.00 0.00 42 1013.8
20260505002017 23 236 0.0 4.8 0.00 0.00 0.00 42 1013.7
20260505001517 23 199 4.8 6.4 0.00 0.00 0.00 41 1013.6
20260505001017 23 215 0.0 3.2 0.00 0.00 0.00 41 1013.6
20260505000517 23 192 0.0 6.4 0.00 0.00 0.00 41 1013.7
20260505000017 24 264 0.0 8.0 0.00 0.00 0.00 40 1013.7
20260504235517 24 196 0.0 3.2 0.00 0.00 0.00 40 1013.6
20260504235017 24 248 0.0 4.8 0.00 0.00 0.00 40 1013.7
20260504234516 24 270 0.0 8.0 0.00 0.00 0.00 40 1013.7
20260504234017 24 182 0.0 9.7 0.00 0.00 0.00 39 1013.7
20260504233517 25 202 0.0 8.0 0.00 0.00 0.00 39 1013.8
20260504233017 25 208 0.0 11.3 0.00 0.00 0.00 39 1013.8
20260504232517 25 0 0.0 0.0 0.00 0.00 0.00 39 1013.9
20260504232017 25 0 0.0 0.0 0.00 0.00 0.00 37 1013.9
20260504231518 25 0 0.0 0.0 0.00 0.00 0.00 37 1013.8
20260504231017 25 217 0.0 1.6 0.00 0.00 0.00 38 1013.9
20260504230517 25 192 0.0 9.7 0.00 0.00 0.00 38 1013.9
20260504230017 25 199 0.0 8.0 0.00 0.00 0.00 39 1014.0
20260504225517 25 309 0.0 11.3 0.00 0.00 0.00 36 1014.0
20260504225017 25 192 4.8 11.3 0.00 0.00 0.00 36 1014.0
20260504224517 25 198 0.0 9.7 0.00 0.00 0.00 36 1014.0
20260504224017 26 237 1.6 4.8 0.00 0.00 0.00 35 1014.0
20260504223517 26 196 0.0 12.9 0.00 0.00 0.00 35 1014.1
20260504223017 26 206 0.0 4.8 0.00 0.00 0.00 34 1014.1
20260504222517 26 220 0.0 8.0 0.00 0.00 0.00 34 1014.2
20260504222017 26 193 4.8 9.7 0.00 0.00 0.00 35 1014.2
20260504221517 26 210 6.4 8.0 0.00 0.00 0.00 36 1014.2
20260504221018 26 226 0.0 3.2 0.00 0.00 0.00 36 1014.2
20260504220517 26 199 1.6 3.2 0.00 0.00 0.00 35 1014.2
20260504220017 26 193 0.0 8.0 0.00 0.00 0.00 37 1014.2
20260504215517 26 176 3.2 8.0 0.00 0.00 0.00 36 1014.2
20260504215018 26 206 0.0 4.8 0.00 0.00 0.00 34 1014.3
20260504214517 26 0 0.0 0.0 0.00 0.00 0.00 38 1014.4
20260504214017 26 0 0.0 0.0 0.00 0.00 0.00 37 1014.4
20260504213517 26 205 0.0 11.3 0.00 0.00 0.00 36 1014.4
20260504213017 26 200 0.0 6.4 0.00 0.00 0.00 36 1014.5
20260504212517 26 189 0.0 6.4 0.00 0.00 0.00 36 1014.5
20260504212017 26 192 0.0 12.9 0.00 0.00 0.00 36 1014.6
20260504211517 26 182 8.0 11.3 0.00 0.00 0.00 35 1014.6
20260504211017 26 195 8.0 16.1 0.00 0.00 0.00 34 1014.5
20260504210517 26 261 3.2 6.4 0.00 0.00 0.00 33 1014.6
20260504210017 26 237 0.0 6.4 0.00 0.00 0.00 34 1014.5
20260504205517 26 234 0.0 9.7 0.00 0.00 0.00 37 1014.7
20260504205017 26 178 4.8 3.2 0.00 0.00 0.00 38 1014.7
20260504204518 26 233 0.0 12.9 0.00 0.00 0.00 36 1014.7
20260504204017 26 263 8.0 11.3 0.00 0.00 0.00 34 1014.7
20260504203518 26 318 1.6 11.3 0.00 0.00 0.00 36 1014.7
20260504203017 26 195 0.0 14.5 0.00 0.00 0.00 34 1014.8
20260504202517 26 234 0.0 8.0 0.00 0.00 0.00 36 1014.8
20260504202018 26 167 0.0 6.4 0.00 0.00 0.00 35 1014.8
20260504201517 26 313 0.0 17.7 0.00 0.00 0.00 38 1014.8
20260504201017 26 198 0.0 8.0 0.00 0.00 0.00 36 1014.9
20260504200517 26 257 6.4 4.8 0.00 0.00 0.00 38 1015.0
20260504200017 25 0 0.0 0.0 0.00 0.00 0.00 39 1015.1
20260504195517 25 229 0.0 9.7 0.00 0.00 0.00 39 1015.2
20260504195017 25 83 3.2 6.4 0.00 0.00 0.00 36 1015.2
20260504194518 25 248 0.0 4.8 0.00 0.00 0.00 40 1015.3
20260504194017 25 256 0.0 6.4 0.00 0.00 0.00 39 1015.3
20260504193517 25 184 4.8 8.0 0.00 0.00 0.00 39 1015.4
20260504193017 25 247 0.0 4.8 0.00 0.00 0.00 40 1015.5
20260504192517 25 244 0.0 6.4 0.00 0.00 0.00 40 1015.5
20260504192017 25 258 0.0 9.7 0.00 0.00 0.00 39 1015.7
20260504191518 25 51 1.6 8.0 0.00 0.00 0.00 41 1015.7
20260504191017 25 48 4.8 8.0 0.00 0.00 0.00 43 1015.7
20260504190517 25 0 0.0 0.0 0.00 0.00 0.00 43 1015.8
20260504190017 25 78 0.0 4.8 0.00 0.00 0.00 43 1015.8
20260504185517 24 85 3.2 4.8 0.00 0.00 0.00 40 1015.9
20260504185017 25 0 0.0 0.0 0.00 0.00 0.00 41 1016.0
20260504184517 24 213 0.0 9.7 0.00 0.00 0.00 40 1016.2
20260504184017 25 196 0.0 8.0 0.00 0.00 0.00 39 1016.2
20260504183517 25 179 6.4 14.5 0.00 0.00 0.00 39 1016.2
20260504183017 25 215 0.0 3.2 0.00 0.00 0.00 41 1016.3
20260504182517 24 186 0.0 4.8 0.00 0.00 0.00 41 1016.4
20260504182017 24 83 1.6 11.3 0.00 0.00 0.00 42 1016.5
20260504181517 24 244 3.2 9.7 0.00 0.00 0.00 42 1016.6
20260504181017 24 247 0.0 8.0 0.00 0.00 0.00 42 1016.5
20260504180517 24 17 6.4 4.8 0.00 0.00 0.00 44 1016.5
20260504180017 24 172 0.0 9.7 0.00 0.00 0.00 42 1016.8
20260504175517 24 191 8.0 9.7 0.00 0.00 0.00 41 1016.9
20260504175017 25 257 0.0 4.8 0.00 0.00 0.00 46 1016.9
20260504174517 25 206 0.0 8.0 0.00 0.00 0.00 43 1016.9
20260504174017 25 164 0.0 6.4 0.00 0.00 0.00 43 1016.9
20260504173517 24 157 6.4 6.4 0.00 0.00 0.00 43 1017.0
20260504173017 24 222 3.2 8.0 0.00 0.00 0.00 43 1017.1
20260504172517 24 134 0.0 6.4 0.00 0.00 0.00 44 1017.1
20260504172018 23 134 3.2 11.3 0.00 0.00 0.00 44 1017.2
20260504171517 23 0 0.0 0.0 0.00 0.00 0.00 45 1017.3
20260504171017 23 189 0.0 4.8 0.00 0.00 0.00 45 1017.5
20260504170518 23 240 0.0 4.8 0.00 0.00 0.00 45 1017.6
20260504151017 20 232 0.0 4.8 0.00 0.00 0.00 57 1018.5
20260504150518 19 237 3.2 4.8 0.00 0.00 0.00 57 1018.5
20260504141017 17 179 1.6 9.7 0.00 0.00 0.00 64 1019.0
20260504140517 16 199 0.0 4.8 0.00 0.00 0.00 64 1019.1
20260504130517 12 0 0.0 0.0 0.00 0.00 0.00 88 1019.2
20260504110517 10 0 0.0 0.0 0.00 0.00 0.00 91 1018.4
20260504100517 10 0 0.0 0.0 0.00 0.00 0.00 91 1018.4